Regional Weather Roundup
Issued by NWS

Home | Current Version | Previous Version | Text Only | Print | Product List | Glossary On
Versions: 1 2 3 4 5 6 7 8 9 10 11 12 13 14 15 16 17 18 19 20 21 22 23 24 25 26 27 28 29 30 31 32 33 34 35 36 37 38 39 40 41 42 43 44 45 46 47 48 49 50
000
ASUS43 KLOT 262308
RWRIL

ILLINOIS REGIONAL WEATHER ROUNDUP
NATIONAL WEATHER SERVICE CHICAGO/ROMEOVILLE IL
600 PM CDT SUN APR 26 2015

NOTE: "FAIR" INDICATES FEW OR NO CLOUDS BELOW 12,000 FEET WITH NO
SIGNIFICANT WEATHER AND/OR OBSTRUCTIONS TO VISIBILITY.

* THESE STATIONS ARE NOT UNDER NWS QUALITY CONTROL. THEY ALSO MAY NOT
  REPORT WEATHER SUCH AS PRECIPITATION OR FOG.

ILZ001-002-007-009-015-016-024-270000-
NORTHWEST ILLINOIS

CITY           SKY/WX    TMP DP  RH WIND       PRES   REMARKS
MOLINE         SUNNY     59  31  34 NE12      30.00R
STERLING*      SUNNY     59  34  38 N9        30.00S
SAVANNA*       SUNNY     61  28  29 NE10      30.00S
$$

ILZ003-004-008-010-011-017-018-270000-
NORTH CENTRAL ILLINOIS

CITY           SKY/WX    TMP DP  RH WIND       PRES   REMARKS
ROCKFORD       SUNNY     60  27  28 N15       30.02S
FREEPORT*      SUNNY     57  29  34 N13G20    30.02S
ROCHELLE*      SUNNY     57  31  36 N13G22    30.00R
DE KALB*       MOSUNNY   57  31  38 NE13      29.99S
PERU*          SUNNY     58  32  37 N10G16    29.99S
$$

ILZ005-006-012>014-019>023-270000-
NORTHEAST ILLINOIS

CITY           SKY/WX    TMP DP  RH WIND       PRES   REMARKS
CHICAGO-OHARE  MOSUNNY   52  23  32 NE16      30.00S
CHICAGO-MIDWAY MOSUNNY   54  25  32 NE15      30.00S
AURORA         SUNNY     58  29  33 E13       29.99S
LANSING*       SUNNY     48  27  43 N13G22    30.00S
JOLIET*        SUNNY     56  28  34 NE16      29.99R
WAUKEGAN       SUNNY     47  27  45 N14G20    30.01S
DUPAGE AIRPORT SUNNY     54  26  34 NE14      29.98S
KANKAKEE*      SUNNY     54  30  40 NE15G21   29.99S
WHEELING       SUNNY     50  25  37 NE15G23   30.03R
MORRIS*        SUNNY     56  30  36 E9G16     29.97R
ROMEOVILLE*    SUNNY     54  26  34 NE20      29.99S
NORTHERLY ISL    N/A     47  31  54 N12         N/A
$$

LMZ740>746-270000-
SOUTHERN LAKE MICHIGAN

STATION/POSITION SKY/WX   TEMP    WIND        PRES    VSBY  WAVE
                          AIR SEA DIR/SP/G                  HT/PER
                          (F)     (DEG/KT/KT) (MB)    (MI)  (FT/S)
HARRISON CRIB              41     360/ 15/ 18   N/A
BURNHAM HARBOR             46     360/ 11/ 16   N/A
CALUMET HARBOR             45     340/ 13/ 18   N/A
BURNS HARBOR               42      10/ 14/ 17 1016.3S
MICHIGAN CITY              41     360/ 10/ 12   N/A
MICHIGAN CITY 6N           41 45  360/ 14/ 17   N/A           4/ 4
$$

ILZ025>027-034>036-040-047-049-050-058-095>099-270000-
WEST-CENTRAL ILLINOIS

CITY           SKY/WX    TMP DP  RH WIND       PRES   REMARKS
QUINCY         SUNNY     59  32  36 NE13      29.97R
GALESBURG*     SUNNY     56  37  48 NE15      29.99S
MACOMB*        SUNNY     58  35  41 NE12G24   30.00S
JACKSONVILLE*  SUNNY     60  33  36 NE15G23   29.97R
PITTSFIELD*    SUNNY     60  31  33 NE12      29.97R
$$

ILZ028>032-037-038-041>044-048-051>054-059>061-270000-
CENTRAL ILLINOIS

CITY           SKY/WX    TMP DP  RH WIND       PRES   REMARKS
PONTIAC        SUNNY     57  34  40 N16       29.98S
BLOOMINGTON    SUNNY     58  33  38 NE17      29.98R
DECATUR        SUNNY     57  34  41 NE17G25   29.96R
PEORIA         SUNNY     59  34  39 NE13      29.98S
LACON*         MOSUNNY   57  34  41 NE8       29.99R
LINCOLN*       SUNNY     59  36  42 NE10G18   29.96R
SPRINGFIELD    SUNNY     59  37  44 NE17G23   29.97R
TAYLORVILLE    MOSUNNY   57  36  44 NE16      29.96R
$$

ILZ033-039-045-046-055>057-062-063-270000-
EAST-CENTRAL ILLINOIS

CITY           SKY/WX    TMP DP  RH WIND       PRES   REMARKS
CHAMPAIGN      SUNNY     56  31  38 N18       29.95R
DANVILLE*      SUNNY     53  32  44 N21G26    29.93R
RANTOUL*       SUNNY     57  30  36 NE20G25   29.96S
MATTOON        PTSUNNY   57  37  47 NE15      29.93R
PARIS*         MOSUNNY   57  38  48 N14G20    29.94R
$$

ILZ079-100>102-270000-
SOUTHWEST ILLINOIS

CITY           SKY/WX    TMP DP  RH WIND       PRES   REMARKS
BELLEVILLE     SUNNY     62  36  38 N12       29.92S
CAHOKIA*       SUNNY     62  35  36 NE12      29.93S
SPARTA*        SUNNY     59  39  47 NE9G16    29.93R
$$

ILZ064>066-069>071-074>076-080>082-084>086-088>090-092>094-270000-
SOUTH-CENTRAL ILLINOIS

CITY           SKY/WX    TMP DP  RH WIND       PRES   REMARKS
CARBONDALE     SUNNY     63  35  35 N13       29.89R
CAIRO*         SUNNY     64  39  40 N7        29.87S
EFFINGHAM*     MOSUNNY   58  33  37 N9G20     29.95R
MARION         SUNNY     63  36  36 N12       29.90R
MT. VERNON     SUNNY     61  34  36 N7        29.92R
CENTRALIA*     SUNNY     63  34  34 NE9       29.92S
SALEM*         SUNNY     61  36  38 N14       29.92S
METROPOLIS*    SUNNY     64  39  39 N9        29.86S
$$

ILZ067-068-072-073-078-083-087-091-270000-
SOUTHEAST ILLINOIS

CITY           SKY/WX    TMP DP  RH WIND       PRES   REMARKS
LAWRENCEVILLE  SUNNY     60  37  42 NE15      29.90R
FLORA*         SUNNY     60  38  45 N13G18    29.92R
FAIRFIELD*     SUNNY     61  36  39 N10G17    29.89S
HARRISBURG*    SUNNY     61  35  37 N12       29.90R
ROBINSON*      SUNNY     59  37  43 N16       29.91S
CARMI*         SUNNY     62  31  32 N12       29.89R
$$

ABBREVIATIONS USED IN REMARKS
   TC - TEMPERATURE IN CELSIUS
  WCI - WIND CHILL INDEX
   HX - HEAT INDEX
  VSB - VISIBILITY
$$



USA.gov is the U.S. government's official web portal to all federal, state and local government web resources and services.